{"data":{"norad_id":68038,"epoch":"2026-05-24T19:49:55.302528Z","epoch_age_seconds":80120,"freshness":"FRESH","line1":"1 68038U 26040Z   26144.82633452  .00020053  00000+0  62178-3 0  9993","line2":"2 68038  97.2859  93.8870 0001664  87.7588 272.3845 15.33446509 13131","mean_motion":15.33446509,"eccentricity":0.0001664,"inclination_deg":97.2859,"raan_deg":93.887,"arg_perigee_deg":87.7588,"mean_anomaly_deg":272.3845,"bstar":0.00062178,"rev_number":1313,"period_min":93.906112247702,"perigee_km":464.39989712554,"apogee_km":466.67747239343,"semimajor_km":6843.6756847595,"source":"CELESTRAK","updated_at":"2026-05-25T13:38:21.809327Z"}}